Flag for Czech Republic Weather past 2 weeks in Brno, Czech Republic

Now
63 °F

Thunderstorms. Passing clouds.


Feels Like: 63 °F
Forecast: 51 / 72 °F
Wind: 2 mph from South

Location: Brno / Turany

Current Time: Aug 30, 2014 at 9:22:36 PM

Latest Report: Aug 30, 2014 at 8:00 PM


Visibility: 16 mi

Pressure: 30.05 "Hg

Humidity: 85%

Dew point: 59 °F

Location of BrnoLocation

Historic Weather in Brno — Graph

°F

Brno temperature yesterday

Maximum temperature yesterday: 73 °F (at 4:00 PM)
Minimum temperature yesterday: 48 °F (at 6:00 AM)
Average temperature yesterday: 61 °F

Past Weeks' High & Low Weather Summary

 TemperatureHumidityPressure
High76 °F (Aug 18, 5:00 PM)97% (Aug 19, 4:00 AM)30.14 "Hg (Aug 19, 4:00 AM)
Low44 °F (Aug 25, 6:00 AM)40% (Aug 18, 1:00 PM)29.71 "Hg (Aug 26, 6:00 PM)
Average60 °F77%29.98 "Hg
* Reported Aug 15 7:00 PM — Aug 30 7:00 PM, Brno, Weather by CustomWeather, © 2014

Note: Actual official high and low records may vary slightly from our data, if they occured in-between our weather recording intervals... More about our weather records

Advertising

Brno weather history for previous 24 hours

 ConditionsComfort  
Time TempWeatherWind HumidityBarometerVisibility
7:00 PM
Aug 30
67 °FPartly sunny.3 mph73%30.03 "Hg19 mi
6:00 PM69 °FPartly sunny.6 mph72%30.03 "Hg19 mi
5:00 PM68 °FPartly sunny.6 mph76%30.04 "Hg19 mi
4:00 PM68 °FOvercast.6 mph77%30.05 "Hg16 mi
3:00 PM69 °FOvercast.2 mph71%30.06 "Hg11 mi
2:00 PM68 °FOvercast.3 mph75%30.07 "Hg9 mi
1:00 PM67 °FOvercast.3 mph72%30.09 "Hg9 mi
12:00 PM66 °FOvercast.2 mph74%30.09 "Hg7 mi
11:00 AM66 °FOvercast.2 mph74%30.09 "Hg7 mi
10:00 AM67 °FPartly sunny.2 mph75%30.08 "Hg7 mi
9:00 AM63 °FPartly sunny.1 mph80%30.07 "Hg7 mi
8:00 AM59 °FPartly sunny.2 mph86%30.07 "Hg7 mi
7:00 AM55 °FScattered clouds.1 mph92%30.08 "Hg7 mi
6:00 AM55 °FPassing clouds.1 mph90%30.06 "Hg9 mi
5:00 AM56 °FPassing clouds.2 mph90%30.06 "Hg16 mi
4:00 AM57 °FPassing clouds.No wind88%30.05 "Hg22 mi
3:00 AM58 °FPassing clouds.2 mph88%30.05 "Hg25 mi
2:00 AM61 °FPassing clouds.1 mph78%30.04 "Hg22 mi
1:00 AM62 °FPassing clouds.2 mph74%30.04 "Hg25 mi
12:00 AM64 °FPassing clouds.2 mph70%30.03 "Hg25 mi
11:00 PM
Aug 29
65 °FPassing clouds.2 mph67%30.02 "Hg25 mi
9:00 PM67 °FOvercast.1 mph60%30.02 "Hg25 mi
Weather by CustomWeather, © 2014

See weather overviewHow to use our weather pages